Back to catalog

COSMOS 1275 DEB

AlivePO
NORAD 19025·DEBRIS·🇷🇺 Russia

Launched Jun 4, 1981 from Plesetsk Cosmodrome

Loading…

Next Passes (next 24 hours)

TLE

FreshSource: Space-Track

Epoch: Sep 14, 2026, 08:55 UTC

1 19025U 81053MC  26257.37185339  .00003021  00000-0  11243-2 0  9994
2 19025  82.7035  42.5288 0022202 241.0615 118.8345 14.31690181115999

Track COSMOS 1275 DEB in real time with AllMySat

Download on the App Store